Probability
0 0 0 0 0 0 0 0 0 0 0 0 2 2 1 0 0 0 0 0 0 0 0 0 0 0 0 0 0 0 0 0 0 0 0 0 0 0 0 0 0 0 0 0
0 0 0 0 0 0 0 0 0 0 0 0 2 2 1 0 0 0 0 0 0 0 0 0 0 0 0 0 0 0 0 0 0 0 0 0 0 0 0 0 0 0 0 0
0 0 0 0 0 0 0 0 0 0 0 0 1 1 0 0 0 0 0 0 0 0 0 0 0 0 0 0 0 0 0 0 0 0 0 0 0 0 0 0 0 0 0 0
0 0 0 0 0 0 0 0 0 0 0 0 0 0 0 0 0 0 0 0 0 0 0 0 0 0 0 0 0 0 0 0 0 0 0 0 0 0 0 0 0 0 0 0
0 0 0 0 0 0 0 0 0 0 0 0 0 0 0 0 0 0 0 0 0 0 0 0 0 0 0 0 0 0 0 0 0 0 0 0 0 0 0 0 0 0 0 0
0 0 0 0 0 0 0 0 0 0 0 0 0 0 0 0 0 0 0 0 0 0 0 0 0 0 0 0 0 0 0 0 0 0 0 0 0 0 0 0 0 0 0 0
0 0 0 0 0 0 0 0 0 0 0 0 0 0 0 0 0 0 0 0 0 0 0 0 0 0 0 0 0 0 0 0 0 0 0 0 0 0 0 0 0 0 0 0
0 0 0 0 0 0 0 0 0 0 0 0 0 0 0 0 0 0 0 0 0 0 0 0 0 0 0 0 0 0 0 0 0 0 0 0 0 0 0 0 0 0 0 0
0 0 0 0 0 0 0 0 0 0 0 0 0 0 0 0 0 0 0 0 0 0 0 0 0 0 0 0 0 0 0 0 0 0 0 0 0 0 0 0 0 0 0 0
0 0 0 0 0 0 0 0 0 0 0 0 0 0 0 0 0 0 0 0 0 0 0 0 0 0 0 0 0 0 0 0 0 0 0 0 0 0 0 0 0 0 0 0
0 0 0 0 0 0 0 0 0 0 0 0 0 0 0 0 0 0 0 0 0 0 0 0 0 0 0 0 0 0 0 0 0 0 0 0 0 0 0 0 0 0 0 0
0 0 0 0 0 0 0 0 0 0 0 0 0 0 0 0 0 0 0 0 0 0 0 0 0 0 0 0 0 0 0 0 0 0 0 0 0 0 0 0 0 0 0 0
0 0 0 0 0 0 0 0 0 0 0 0 0 0 0 0 0 0 0 0 0 0 0 0 0 0 0 0 0 0 0 0 0 0 0 0 0 0 0 0 0 0 0 0
0 0 0 0 0 0 0 0 0 0 0 0 0 0 0 0 0 0 0 0 0 0 0 0 0 0 0 0 0 0 0 0 0 0 0 0 0 0 0 0 0 0 0 0
0 0 0 0 0 0 0 0 0 0 0 0 0 0 0 0 0 0 0 0 0 0 0 0 0 0 0 0 0 0 0 0 0 0 0 0 0 0 0 0 0 0 0 0
0 0 0 0 0 0 0 0 0 0 0 0 0 0 0 0 0 0 0 0 0 0 0 0 0 0 0 0 0 0 0 0 0 0 0 0 0 0 0 0 0 0 0 0
0 0 0 0 0 0 0 0 0 0 0 0 0 0 0 0 0 0 0 0 0 0 0 0 0 0 0 0 0 0 0 0 0 0 0 0 0 0 0 0 0 0 0 0
0 0 0 0 0 0 0 0 0 0 0 0 0 0 0 0 0 0 0 0 0 0 0 0 0 0 0 0 0 0 0 0 0 0 0 0 0 0 0 0 0 0 0 0
0 0 0 0 0 0 0 0 0 0 0 0 0 0 0 0 0 0 0 0 0 0 0 0 0 0 0 0 0 0 0 0 0 0 0 0 0 0 0 0 0 0 0 0
0 0 0 0 0 0 0 0 0 0 0 0 0 0 0 0 0 0 0 0 0 0 0 0 0 0 0 0 0 0 0 0 0 0 0 0 0 0 0 0 0 0 0 0
0 0 0 0 0 0 0 0 0 0 0 0 0 0 0 0 0 0 0 0 0 1 0 0 0 0 0 0 0 0 0 0 0 0 0 0 0 0 0 0 0 0 0 0
0 0 0 0 0 0 0 0 0 0 0 0 0 0 0 0 0 0 0 0 0 0 0 0 0 0 0 0 0 0 0 0 0 0 0 0 0 0 0 0 0 0 0 0
0 0 0 0 0 0 0 0 0 0 0 0 0 0 0 0 0 0 0 0 0 0 0 0 0 0 0 0 0 0 0 0 0 0 0 0 0 0 0 0 0 0 0 0
0 0 0 0 0 0 0 0 0 0 0 0 0 0 0 0 0 0 0 0 0 0 0 0 0 0 0 0 0 0 0 0 0 0 0 0 0 0 0 0 0 0 0 0
0 0 0 1 0 0 0 0 0 0 0 0 0 0 0 0 0 0 0 0 0 0 0 0 0 0 0 0 0 0 0 0 0 0 0 0 0 0 0 0 0 0 0 0
0 0 0 0 0 0 0 0 0 0 0 0 0 0 0 0 0 0 0 0 0 0 0 0 0 0 0 0 0 0 0 0 0 0 0 0 0 0 0 0 0 0 0 0
0 0 0 0 0 0 0 0 0 0 0 0 0 0 0 0 0 0 0 0 0 0 0 0 0 0 0 0 0 0 0 0 0 0 0 0 0 0 0 0 0 0 0 0
Wind_Speed
13 16 16 17 16 13 11 11 11 13 13 11 6 6 7 7 6 6 4 3 3 3 2 2 2 2 2 1 1 1 2 3 3 2 2 2 3 3 2 3 5 4 4 5
15 16 15 15 14 12 12 11 10 11 9 1 2 5 7 7 6 5 4 3 2 1 1 2 2 2 2 2 2 2 3 3 3 2 3 3 2 2 2 3 3 3 4 6
14 15 14 12 7 7 9 9 8 8 4 3 5 5 6 6 5 5 3 2 2 1 1 1 2 2 2 0 2 2 3 3 3 4 5 5 5 5 5 4 4 4 4 5
13 13 12 5 2 5 7 7 6 3 1 1 3 4 5 6 6 6 4 4 3 2 2 2 3 3 2 2 3 3 3 4 4 4 4 4 4 5 5 4 4 4 4 5
9 11 10 6 2 2 6 8 4 1 1 3 4 5 6 8 8 7 6 4 3 3 3 3 4 3 3 4 4 4 4 4 4 4 4 3 3 3 3 3 4 4 4 5
10 12 12 6 5 1 6 5 3 0 2 3 4 4 2 10 8 6 5 3 3 3 4 3 3 3 3 4 4 5 4 4 3 3 3 2 2 2 1 1 2 3 5 5
13 13 9 5 5 3 6 1 1 4 3 4 3 2 6 9 7 6 5 5 5 5 3 2 2 2 4 5 6 5 4 4 3 2 2 2 2 1 0 0 1 3 4 5
11 11 4 5 2 4 3 2 5 6 5 4 6 8 8 8 7 6 6 6 5 4 2 2 2 4 5 6 5 5 4 3 3 1 2 3 2 2 1 1 1 2 3 4
6 6 3 4 4 4 3 4 6 6 5 4 6 8 7 7 6 5 4 3 3 3 4 3 4 4 6 6 5 5 4 3 2 2 2 2 2 2 2 2 2 2 3 3
7 8 8 7 6 5 6 6 7 7 6 6 7 8 8 7 6 4 3 3 3 3 4 4 4 5 6 6 5 5 4 4 3 2 2 2 2 2 3 3 3 3 4 3
10 10 12 12 12 10 8 8 8 8 7 7 7 8 9 7 6 5 4 4 4 4 4 5 5 6 6 6 5 5 4 4 3 3 3 3 3 3 3 4 3 3 3 3
11 9 9 7 7 8 9 10 9 9 8 8 8 8 9 9 8 6 5 5 4 5 5 7 7 6 6 6 5 4 4 5 4 4 4 4 5 4 2 2 4 3 2 2
10 11 11 11 11 12 10 11 12 11 10 9 9 9 10 9 9 8 7 7 6 6 7 7 8 8 8 7 6 5 4 4 4 5 6 5 6 6 6 4 3 4 5 4
12 12 14 13 12 12 11 10 12 13 12 11 10 10 10 11 11 11 10 9 8 7 7 8 8 8 8 7 6 5 6 6 5 5 6 7 7 7 7 8 8 7 8 9
12 12 13 12 12 13 12 11 11 12 13 13 12 12 12 12 12 12 11 10 9 9 9 9 8 8 8 8 7 6 6 5 6 5 5 5 5 6 5 5 4 5 8 7
10 11 12 11 10 11 13 14 14 13 14 14 14 13 13 13 12 12 12 12 11 11 10 9 8 8 9 8 7 6 4 2 3 4 6 6 5 5 3 2 2 1 2 6
8 8 8 9 10 10 12 14 14 14 15 15 15 14 14 14 13 12 12 12 11 10 10 9 9 9 10 9 8 8 8 8 8 6 7 6 5 4 3 2 2 1 1 5
4 5 7 9 10 11 11 13 14 14 14 15 16 16 15 15 14 13 12 12 11 11 11 10 10 10 10 10 8 8 7 7 9 8 7 7 5 4 4 4 4 3 2 5
3 5 7 9 11 11 12 11 12 13 14 15 15 16 15 14 13 12 12 12 12 13 11 12 14 13 11 11 10 7 9 8 8 9 8 6 5 5 5 5 5 4 4 2
3 5 8 10 11 12 13 11 11 11 12 14 14 14 15 15 14 13 12 12 12 11 11 12 13 12 12 11 13 10 11 11 10 9 9 8 8 8 8 7 6 5 4 3
5 7 9 10 11 12 13 13 12 10 10 12 12 13 14 14 14 13 12 13 10 10 11 15 12 12 12 11 13 12 11 11 11 10 9 8 8 8 8 7 5 4 4 4
7 9 11 12 13 13 12 12 13 13 11 9 13 14 14 14 15 14 13 11 10 13 13 11 11 13 14 14 12 12 12 12 11 9 9 9 8 8 7 6 5 4 4 5
10 12 13 15 15 15 15 14 14 13 12 10 10 12 14 13 13 14 13 11 11 13 11 10 12 16 18 14 12 12 13 13 12 10 9 8 8 6 5 5 4 3 4 4
12 14 15 15 16 16 16 16 15 12 13 12 11 10 11 12 12 13 11 13 15 14 11 10 13 16 18 13 12 12 12 11 11 11 11 9 7 5 5 4 3 3 4 5
16 16 16 15 14 13 13 14 14 14 15 12 13 11 11 11 11 11 11 11 13 14 11 12 16 18 15 12 12 12 12 11 11 10 9 7 6 5 5 4 3 3 4 5
14 12 11 11 10 10 11 11 10 8 7 8 10 9 8 8 10 9 9 12 12 14 12 9 11 13 12 12 12 12 11 10 10 8 7 6 7 6 5 4 4 5 5 5
14 12 9 10 10 10 10 10 9 9 7 6 6 6 6 6 7 9 10 9 9 11 11 9 10 11 12 11 11 10 9 9 8 7 7 7 6 5 5 5 4 5 5 5
Wind_Direction
294 297 297 298 299 293 276 273 274 285 291 299 270 203 165 158 157 154 142 120 93 86 78 42 23 352 3 59 62 45 77 76 75 74 77 78 71 58 40 18 33 20 15 26
288 291 295 295 298 309 311 311 307 302 309 335 144 157 157 166 175 177 169 153 137 82 48 34 355 338 353 37 56 63 77 77 60 47 47 45 57 59 49 43 33 28 39 50
293 298 298 291 311 322 313 317 315 313 325 171 163 174 175 176 184 186 182 190 191 191 290 320 312 316 298 162 118 92 84 76 60 50 50 37 31 38 30 24 24 27 48 73
284 289 285 300 341 303 307 313 319 315 295 190 147 155 164 171 181 184 197 211 215 230 247 266 282 273 234 197 156 134 109 81 60 55 59 50 45 40 24 18 17 16 43 71
287 288 293 297 233 278 313 308 320 278 192 164 151 175 185 178 181 187 195 202 208 225 247 257 269 258 212 191 168 140 110 92 73 61 62 52 48 40 24 16 15 10 41 59
271 287 293 297 123 45 295 275 60 23 214 197 216 248 208 167 175 180 179 186 216 241 246 249 255 237 204 181 145 126 112 99 83 67 61 53 57 48 26 9 17 31 47 44
257 274 291 92 112 270 284 84 148 296 269 221 211 103 121 150 165 169 189 202 216 236 242 242 230 182 161 132 126 126 124 115 97 72 62 64 54 52 42 46 61 63 63 59
269 268 288 78 306 327 52 144 267 279 267 208 154 146 158 164 166 185 207 211 209 215 202 175 168 151 142 134 132 135 138 133 121 82 29 63 61 63 59 73 99 82 83 83
300 321 346 277 294 302 277 262 272 269 251 194 181 178 175 167 174 198 213 206 206 197 176 163 161 155 148 143 145 144 143 140 130 109 69 55 60 73 78 76 79 78 83 89
260 275 291 296 281 245 239 243 258 258 239 203 197 187 173 170 176 193 199 193 198 191 173 160 155 153 149 149 154 161 158 148 140 132 116 90 58 60 73 76 80 77 77 81
270 261 260 263 264 252 232 221 235 248 233 211 203 188 171 171 173 182 187 183 179 181 173 156 157 158 157 159 166 171 165 159 156 155 140 130 103 73 80 79 86 93 82 80
283 292 281 278 281 266 231 214 221 239 235 209 200 190 178 174 170 175 177 173 177 173 165 158 159 159 161 166 176 177 175 175 177 175 172 166 154 144 73 111 145 135 139 133
290 293 290 284 275 268 242 213 206 213 225 218 202 192 184 174 167 174 179 181 181 174 163 159 160 163 170 176 178 177 184 186 186 182 178 186 186 179 176 187 217 240 235 232
286 280 273 270 269 274 259 229 211 206 206 209 205 196 190 181 176 182 188 188 183 177 170 170 171 170 175 180 186 194 201 185 200 201 201 201 199 206 196 186 193 210 219 224
281 282 276 266 250 246 250 241 225 212 203 201 201 199 197 191 185 186 190 192 186 187 187 185 186 181 185 190 193 210 225 206 205 212 218 215 211 227 221 195 196 192 173 183
282 285 281 276 268 250 239 235 229 221 210 201 200 199 199 198 192 191 192 195 193 198 198 197 196 190 193 202 198 211 221 209 227 238 240 219 214 245 247 205 228 271 152 160
274 288 301 302 291 274 254 246 233 221 215 206 201 199 199 200 199 197 195 195 197 201 198 198 201 200 202 204 210 221 217 195 200 236 259 258 229 225 247 270 275 273 75 104
269 298 315 319 313 301 279 258 245 228 218 211 203 200 200 199 201 199 198 196 197 202 204 202 201 202 208 207 206 231 237 205 193 218 235 246 240 232 244 252 255 259 199 160
296 321 328 328 323 312 298 275 254 239 223 214 208 200 198 199 198 197 195 197 200 204 203 206 207 203 204 208 205 212 242 246 213 209 222 224 224 237 247 256 259 258 263 225
300 319 324 325 327 326 318 301 274 251 232 216 208 200 198 199 198 198 198 204 208 210 200 201 202 203 210 204 204 216 220 233 241 231 220 224 226 227 231 239 246 252 257 266
285 299 306 310 314 315 316 316 304 277 248 222 206 201 198 196 198 199 203 211 204 199 203 201 201 203 206 206 198 218 227 226 228 235 236 234 235 235 234 234 236 240 253 259
292 298 302 304 304 302 302 304 302 295 276 239 216 207 200 196 200 202 203 210 209 201 206 212 206 207 205 203 207 215 223 232 234 229 228 231 236 238 234 223 216 224 243 252
309 307 303 300 297 294 290 287 287 287 282 265 233 211 204 200 203 207 211 204 212 211 207 215 211 198 191 198 211 214 218 225 232 235 232 230 231 228 216 207 206 230 251 251
288 288 288 288 287 284 282 280 278 276 273 270 256 227 204 200 203 209 211 206 206 204 207 214 207 189 185 199 211 219 222 220 223 229 234 233 222 205 186 182 211 239 248 251
279 280 280 280 279 278 277 273 270 265 261 256 253 241 218 208 209 207 206 205 197 189 201 201 190 183 189 206 212 217 223 227 228 226 223 213 197 178 163 165 204 236 240 239
280 280 279 275 275 274 276 277 276 276 274 265 252 243 231 213 207 204 202 205 195 192 200 190 180 187 200 209 216 220 223 221 216 216 213 189 179 169 162 174 211 237 242 238
287 282 274 270 270 267 266 267 270 270 267 268 274 269 252 231 214 208 207 209 200 193 199 198 185 189 204 212 216 218 219 220 216 200 184 174 160 153 160 185 223 240 240 233